User: anonymous
Location: Unspecified
(0.0000°N, 0.0000°E)
Time: 19:38:21
(UTC+02:00)
Language:

Iridium 15 - Orbit

View from above orbital plane
View from above orbital plane
View from above satellite
View from above satellite

Ground track
Ground track

The orbit data is extracted from the following two-line orbital elements,

1 24869U 97034A   14202.38054795  .00000205  00000-0  66201-4 0  9910
2 24869 086.3977 105.6800 0002250 099.3406 037.8899 14.34214905891725
Epoch (UTC): 21 July 2014 09:07:59
Eccentricity: 0.0002250
inclination: 86.3977°
perigee height: 776 km
apogee height: 779 km
right ascension of ascending node: 105.6800°
argument of perigee: 99.3406°
revolutions per day: 14.34214905
mean anomaly at epoch: 37.8899°
orbit number at epoch: 89172

The dashed part of the orbit path shows where the satellite is in the earth's shadow,  

DLR